Tracking 30074 objects as of 13-Jan-2025
HD Live streaming from Space Station
objects crossing your sky now

METEOR 2-17 DEB

Track METEOR 2-17 DEB now!
10-day predictions


NORAD ID: 45521
Int'l Code: 1988-005BB
Perigee: 904.8 km
Apogee: 930.4 km
Inclination: 82.5 °
Period: 103.2 minutes
Semi major axis: 7288 km
RCS: Unknown
Launch date: January 30, 1988
Source: Commonwealth of Independent States (former USSR) (CIS)
Launch site: PLESETSK MISSILE AND SPACE COMPLEX (PKMTR)

Note: This is SATELLITE DEBRIS
Your satellite tracking list
Your tracking list is empty




NASA's NSSDC Master Catalog

Two Line Element Set (TLE):
1 45521U 88005BB  25011.35295529  .00002646  00000-0  19466-2 0  9993
2 45521  82.5158 348.6063 0017545  27.3624 332.8462 13.95211200610766
Source of the keplerian elements: AFSPC